Lexington Weather

Lexington, Massachusetts, USA

70°F
8/17/2022 5:47pm 
  • Lexington Conditions: Overcast
  • Temperature: 70.2°F / 21.2°CColder 0.7°F than last hour.
  • Dew Point: 59.2°FIncreased 1.1°Fsince last hour.
  • Relative Humidity: 68%Increased 4.0% since last hour.
  • Wind: Calm, 10-min avg: Calm, gust: 2 mph
  • Barometer: 29.86 inFalling 0.02  inHg/hr Falling Slowly
  • Visibility: 10 miles
  • Rain Today: 0.00 in
  •   

Regional Weather Roundup
for Boston, MA

        
000
ASUS41 KBOX 141910
RWRBOX

REGIONAL WEATHER ROUNDUP
NATIONAL WEATHER SERVICE BOSTON/NORTON MA
300 PM EDT SUN AUG 14 2022

NOTE:  "FAIR" INDICATES FEW OR NO CLOUDS BELOW 12,000 FEET WITH NO 
SIGNIFICANT WEATHER AND/OR OBSTRUCTIONS TO VISIBILITY.

MAZALL-142000-
EASTERN MASSACHUSETTS
  
CITY           SKY/WX    TMP DP  RH WIND       PRES   REMARKS
BOSTON         PTSUNNY   76  55  48 E17       30.01F                  
BEVERLY        MOSUNNY   79  49  34 SE13      30.01F                  
LAWRENCE       CLOUDY    81  48  31 VRB3      30.02F                  
BEDFORD        MOSUNNY   83  47  28 W7        30.00F                  
BLUE HILL      NOT AVBL                                               
NORWOOD        SUNNY     84  48  28 VRB5      30.00F                  
MARSHFIELD     SUNNY     73  57  56 E6        30.02F                  
PLYMOUTH       MOSUNNY   79  59  50 NE8       30.02F                  
TAUNTON          N/A    N/A N/A N/A MISG      30.00F                  
NEW BEDFORD    PTSUNNY   77  55  46 S12       30.02S                  
$$

MAZALL-142000-
CAPE COD AND THE ISLANDS
  
CITY           SKY/WX    TMP DP  RH WIND       PRES   REMARKS
FALMOUTH       SUNNY     75  57  53 NE10      30.05S                  
HYANNIS        SUNNY     76  57  51 VRB7      30.02F                  
CHATHAM        SUNNY     76  59  55 VRB5      30.04F                  
NANTUCKET      SUNNY     75  63  66 SW8       30.04F                  
MARTHAS VNYRD  SUNNY     77  59  53 SW12      30.03F                  
$$
 
MAZALL-142000-
CENTRAL AND WESTERN MASSACHUSETTS
  
CITY           SKY/WX    TMP DP  RH WIND       PRES   REMARKS
WORCESTER      SUNNY     77  46  33 VRB3      30.05F                  
FITCHBURG      MOSUNNY   83  39  21 NW8       30.02F                  
ORANGE         SUNNY     80  45  28 VRB3      30.03F                  
SPRINGFIELD    MOSUNNY   80  46  29 NW3       29.99F                  
WESTFIELD      MOSUNNY   81  49  32 NE6       30.01F                  
NORTH ADAMS    SUNNY     79  51  37 N5        30.03F                  
PITTSFIELD     SUNNY     79  42  26 W9        30.04F                  
$$
 
RIZALL-142000-
RHODE ISLAND
  
CITY           SKY/WX    TMP DP  RH WIND       PRES   REMARKS
PROVIDENCE     PTSUNNY   81  52  36 SE13      30.02F                  
NEWPORT        SUNNY     73  59  61 S9        30.03F                  
BLOCK ISLAND   SUNNY     74  56  53 SW10      30.05F                  
SMITHFIELD     MOSUNNY   80  48  32 W6        30.03F                  
WESTERLY       MOSUNNY   78  51  38 SW13      30.03F                  
$$
 
CTZALL-142000-
CONNECTICUT
  
CITY           SKY/WX    TMP DP  RH WIND       PRES   REMARKS
BRADLEY INTL   MOSUNNY   83  49  30 VRB3      30.01F                  
HARTFORD       PTSUNNY   81  53  37 SE8       30.01F                  
BRIDGEPORT     SUNNY     78  52  40 S7        30.03F                  
DANBURY        MOSUNNY   82  49  31 S6        30.03F                  
GROTON         MOSUNNY   76  59  55 SW8       30.03F                  
NEW HAVEN      SUNNY     81  53  37 S9        30.04F                  
CHESTER        FAIR      81  48  32 S12       30.04F                  
MERIDEN        MOSUNNY   81  49  32 S16       30.02F                  
WILLIMANTIC    PTSUNNY   80  46  30 VRB5      30.02F                  
OXFORD         MOSUNNY   78  51  38 VRB3      30.05F                  
$$

MEZ002-015-021-024-NHZ003-005-008-011-012-014-VTZ005-008-142000-
NORTHERN NEW ENGLAND
  
CITY           SKY/WX    TMP DP  RH WIND       PRES   REMARKS
PORTLAND ME    SUNNY     78  54  43 S10       30.00F                  
BANGOR ME      MOSUNNY   82  52  35 NW8G16    29.97S                  
CONCORD NH     SUNNY     82  46  28 W5        30.01F                  
MANCHESTER NH  MOSUNNY   81  48  31 NW5       30.00F                  
NASHUA NH      PTSUNNY   80  49  33 VRB5      30.01F                  
PORTSMOUTH NH  PTSUNNY   79  48  33 S5        29.99F                  
JAFFREY NH     MOSUNNY   79  44  28 W6        30.05F                  
KEENE NH       MOSUNNY   79  46  31 S5          N/A                   
BURLINGTON VT  MOSUNNY   80  43  26 SE3       30.03F                  
MT. WASHINGTON PTSUNNY   52  43  71 W12         N/A                   
$$

NYZ052-076-142000-
EASTERN NEW YORK
  
CITY           SKY/WX    TMP DP  RH WIND       PRES   REMARKS
ALBANY         MOSUNNY   81  50  33 NE3       30.02F                  
NEW YORK CITY  PTSUNNY   82  50  32 S14       30.03F                  
$$
 
ANZALL-142000-
MARINE OBSERVATIONS
  
STATION/POSITION TIME  TEMP    WIND        PRES    VSBY  WAVE
                       AIR SEA DIR/SP/G                  HT/PER
                 (UTC) (F)     (DEG/KT/KT) (MB)    (MI)  (FT/S)
BOSTON BUOY      NOT AVBL
BUZZARDS BAY     NOT AVBL
NANTUCKET SOUND  NOT AVBL
MASS BAY-STELLWA NOT AVBL
ISLE OF SHOALS   NOT AVBL
S OF BLOCK IS    NOT AVBL
$$

......................KEY.........................
  SKY/WX - SKY CONDITION/PRESENT WEATHER
  TMP    - TEMPERATURE IN FAHRENHEIT
  DWPT   - DEWPOINT IN FAHRENHEIT
  RH     - RELATIVE HUMIDITY IN PERCENT
  WIND   - DIRECTION AND SPEED IN MPH
  PRES   - MEAN SEA LEVEL PRESSURE IN INCHES OF HG
  WCI    - WIND CHILL INDEX
  VSB    - VISIBILITY IN MILES
  HX     - HEAT INDEX
  TC     - TEMPERATURE IN CELSIUS
  VRB    - VARIABLE WIND DIRECTION
  N/A    - NOT AVAILABLE
  
      

Other recent Regional Weather Roundups

Wed Aug 17, 5:10pm

Wed Aug 17, 4:10pm

Wed Aug 17, 3:10pm

Wed Aug 17, 2:10pm

Wed Aug 17, 1:10pm

Wed Aug 17, 12:10pm

Wed Aug 17, 11:10am

Wed Aug 17, 10:10am

Wed Aug 17, 9:10am

Wed Aug 17, 8:10am

Wed Aug 17, 7:10am

Wed Aug 17, 6:10am

Wed Aug 17, 5:10am

Wed Aug 17, 4:10am

Wed Aug 17, 3:10am

Wed Aug 17, 2:10am

Wed Aug 17, 1:10am

Wed Aug 17, 12:10am

Tue Aug 16, 11:10pm

Tue Aug 16, 10:10pm

Tue Aug 16, 9:10pm

Tue Aug 16, 8:10pm

Tue Aug 16, 7:10pm

Tue Aug 16, 6:10pm

Tue Aug 16, 5:10pm

Tue Aug 16, 4:10pm

Tue Aug 16, 3:10pm

Tue Aug 16, 2:10pm

Tue Aug 16, 1:10pm

Tue Aug 16, 12:10pm

Tue Aug 16, 11:10am

Tue Aug 16, 10:10am

Tue Aug 16, 9:10am

Tue Aug 16, 8:10am

Tue Aug 16, 7:10am

Tue Aug 16, 6:10am

Tue Aug 16, 5:10am

Tue Aug 16, 4:10am

Tue Aug 16, 3:10am

Tue Aug 16, 2:10am

Tue Aug 16, 1:10am

Tue Aug 16, 12:10am

Mon Aug 15, 11:10pm

Mon Aug 15, 10:10pm

Mon Aug 15, 9:10pm

Mon Aug 15, 8:10pm

Mon Aug 15, 7:10pm

Mon Aug 15, 6:10pm

Mon Aug 15, 5:10pm

Mon Aug 15, 4:10pm

Mon Aug 15, 3:10pm

Mon Aug 15, 2:10pm

Mon Aug 15, 1:10pm

Mon Aug 15, 12:10pm

Mon Aug 15, 11:10am

Mon Aug 15, 10:10am

Mon Aug 15, 9:10am

Mon Aug 15, 8:10am

Mon Aug 15, 7:10am

Mon Aug 15, 6:10am

Mon Aug 15, 5:10am

Mon Aug 15, 4:10am

Mon Aug 15, 3:10am

Mon Aug 15, 2:10am

Mon Aug 15, 1:10am

Mon Aug 15, 12:10am

Sun Aug 14, 11:10pm

Sun Aug 14, 10:10pm

Sun Aug 14, 9:10pm

Sun Aug 14, 8:10pm

Sun Aug 14, 7:10pm

Sun Aug 14, 6:10pm

Sun Aug 14, 5:10pm

Sun Aug 14, 4:10pm

Sun Aug 14, 2:10pm

Sun Aug 14, 1:10pm

Sun Aug 14, 12:10pm

Sun Aug 14, 11:10am

Sun Aug 14, 10:10am

Sun Aug 14, 9:10am

Sun Aug 14, 8:10am

Sun Aug 14, 7:10am

Sun Aug 14, 6:10am

Sun Aug 14, 5:10am

Sun Aug 14, 4:10am

Sun Aug 14, 3:10am

Sun Aug 14, 2:10am

Sun Aug 14, 1:10am

Sun Aug 14, 12:10am

Sat Aug 13, 11:10pm

Sat Aug 13, 10:10pm

Sat Aug 13, 9:10pm

Sat Aug 13, 8:10pm

Sat Aug 13, 7:10pm

Sat Aug 13, 6:10pm

Sat Aug 13, 5:10pm

Sat Aug 13, 4:10pm

Sat Aug 13, 3:10pm

Sat Aug 13, 2:10pm

Sat Aug 13, 1:10pm

Sat Aug 13, 12:10pm

Sat Aug 13, 11:10am

Sat Aug 13, 10:10am

Sat Aug 13, 9:10am

Sat Aug 13, 8:10am

Sat Aug 13, 7:10am

Sat Aug 13, 6:10am

Sat Aug 13, 5:10am

Sat Aug 13, 4:10am

Sat Aug 13, 3:10am

Sat Aug 13, 2:10am

Sat Aug 13, 1:10am

Sat Aug 13, 12:10am

Fri Aug 12, 11:10pm

Fri Aug 12, 10:10pm

Fri Aug 12, 9:10pm

Fri Aug 12, 8:10pm

Fri Aug 12, 7:10pm

Fri Aug 12, 6:10pm

Fri Aug 12, 5:10pm

Fri Aug 12, 4:10pm

Fri Aug 12, 3:10pm

Fri Aug 12, 2:10pm

Fri Aug 12, 1:10pm

Fri Aug 12, 12:10pm

Fri Aug 12, 11:10am

Fri Aug 12, 10:10am

Fri Aug 12, 9:10am

Fri Aug 12, 8:10am

Fri Aug 12, 7:10am

Fri Aug 12, 6:10am

Fri Aug 12, 5:10am

Fri Aug 12, 4:10am

Fri Aug 12, 3:10am

Fri Aug 12, 2:10am

Fri Aug 12, 1:10am

Fri Aug 12, 12:10am

Thu Aug 11, 11:10pm

Thu Aug 11, 10:10pm

Thu Aug 11, 9:10pm

Thu Aug 11, 8:10pm

Thu Aug 11, 7:10pm

Thu Aug 11, 6:10pm

Thu Aug 11, 5:10pm

Thu Aug 11, 4:10pm

Thu Aug 11, 3:10pm

Thu Aug 11, 2:10pm

Thu Aug 11, 1:10pm

Thu Aug 11, 12:10pm

Thu Aug 11, 11:10am

Thu Aug 11, 10:10am

Thu Aug 11, 9:10am

Thu Aug 11, 8:10am

Thu Aug 11, 7:10am

Thu Aug 11, 6:10am

Thu Aug 11, 5:10am

Thu Aug 11, 4:10am

Thu Aug 11, 3:10am

Thu Aug 11, 2:10am

Thu Aug 11, 1:10am

Thu Aug 11, 12:10am

Wed Aug 10, 11:10pm

Wed Aug 10, 10:10pm

Wed Aug 10, 9:10pm

Wed Aug 10, 8:10pm

Wed Aug 10, 7:10pm

Wed Aug 10, 6:10pm

Meta data:

ID: f7dba985-02cb-450d-b70a-c57214ea3355
Link: https://api.weather.gov/products/f7dba985-02cb-450d-b70a-c57214ea3355